Change the Weather History Date:

Sunday, January 27, 2013

  Actual Average Record
Temperature  
Mean Temperature 9 °F -  
Max Temperature 15 °F 26 °F 41 °F (2014)
Min Temperature 3 °F 10 °F -5 °F (2001)
Degree Days  
Heating Degree Days 56    
Moisture  
Dew Point 3 °F    
Average Humidity 71    
Maximum Humidity 79    
Minimum Humidity 58    
Precipitation  
Precipitation 0.00 in 0.12 in - ()
Sea Level Pressure  
Sea Level Pressure 29.95 in    
Wind  
Wind Speed 9 mph ()    
Max Wind Speed 16 mph    
Max Gust Speed 24 mph    
Visibility 14.4 miles    
Events Snow    
Averages and records for this station are not official NWS values.
T = Trace of Precipitation, MM = Missing Value Source: Averaged Metar Reports

Daily Weather History Graph

Daily Weather History Graph

Search for Another Location

Airport or City:

Trip Planner

Search our weather history database for the weather conditions in past years. The results will help you decide how hot, cold, wet, or windy it might be!

Date:

Astronomy

Jan. 27, 2013 Rise Set
Actual Time 7:41 AM AST 5:10 PM AST
Civil Twilight 7:08 AM AST 5:42 PM AST
Nautical Twilight 6:32 AM AST 6:19 PM AST
Astronomical Twilight 5:56 AM AST 6:54 PM AST
Moon 6:05 PM AST (1/27) 7:26 AM AST (1/27)
Length of Visible Light 10h 34m
Length of Day
9h 29m
Full, 100% of the Moon is Illuminated
Jan 27
Full
Feb 3
Last Quarter
Feb 10
New
Feb 17
First Quarter
Feb 25
Full

Hourly Weather History & Observations

Time (AST) Temp. Windchill Dew Point Humidity Pressure Visibility Wind Dir Wind Speed Gust Speed Precip Events Conditions
12:00 AM 6.8 °F -3.5 °F 1.4 °F 79% 29.83 in 15.0 mi West 5.8 mph - N/A Snow Light Snow Showers
12:48 AM 6.8 °F -6.9 °F -0.4 °F 72% 29.83 in 15.0 mi WNW 9.2 mph - N/A   Overcast
1:00 AM 6.8 °F -4.8 °F -0.4 °F 72% 29.83 in 15.0 mi West 6.9 mph - N/A   Overcast
2:00 AM 7 °F - -0 °F 61% 29.82 in 15 mi West 10.4 mph - -   Partly Cloudy
2:00 AM 6.8 °F -7.8 °F -0.4 °F 72% 29.82 in 15.0 mi West 10.4 mph - N/A   Overcast
3:00 AM 6.8 °F -8.6 °F 1.4 °F 79% 29.83 in 15.0 mi WNW 11.5 mph - N/A Snow Light Snow Showers
4:00 AM 8.6 °F -6.3 °F 1.4 °F 73% 29.83 in 15.0 mi West 11.5 mph 18.4 mph N/A Snow Light Snow Showers
5:00 AM 8.6 °F -6.3 °F 3.2 °F 79% 29.84 in 12.0 mi WNW 11.5 mph - N/A Snow Light Snow Showers
6:00 AM 8.6 °F -6.3 °F 3.2 °F 79% 29.85 in 15.0 mi WNW 11.5 mph 18.4 mph N/A Snow Light Snow Showers
7:00 AM 8.6 °F -7.0 °F 3.2 °F 79% 29.87 in 15.0 mi WNW 12.7 mph 19.6 mph N/A Snow Light Snow Showers
7:27 AM 8.6 °F -6.3 °F 3.2 °F 79% 29.89 in 15.0 mi WNW 11.5 mph 19.6 mph N/A   Overcast
8:00 AM 9 °F - 2 °F 63% 29.90 in 15 mi WNW 11.5 mph - - Snow Light Snow Showers
8:00 AM 8.6 °F -6.3 °F 3.2 °F 79% 29.90 in 15.0 mi WNW 11.5 mph 17.3 mph N/A   Overcast
8:34 AM 10.4 °F -4.8 °F 3.2 °F 73% 29.91 in 15.0 mi West 12.7 mph 21.9 mph N/A Snow Light Snow Showers
9:00 AM 10.4 °F -4.1 °F 3.2 °F 73% 29.92 in 15.0 mi WNW 11.5 mph 19.6 mph N/A Snow Light Snow Showers
10:00 AM 12.2 °F -3.7 °F 5.0 °F 73% 29.94 in 15.0 mi WNW 15.0 mph 21.9 mph N/A Snow Light Snow Showers
11:00 AM 12.2 °F -3.1 °F 6.8 °F 79% 29.96 in 3.0 mi WNW 13.8 mph 23.0 mph N/A Snow Light Snow Showers
12:00 PM 14.0 °F -1.4 °F 6.8 °F 73% 29.97 in 10.0 mi NW 15.0 mph 23.0 mph N/A Snow Light Snow Showers
1:00 PM 14.0 °F -2.0 °F 6.8 °F 73% 29.97 in 15.0 mi NW 16.1 mph 21.9 mph N/A Snow Light Snow Showers
2:00 PM 15 °F - 7 °F 59% 29.99 in 15 mi NW 15.0 mph - - Snow Light Snow Showers
2:00 PM 14.0 °F -0.8 °F 6.8 °F 73% 29.99 in 15.0 mi NW 13.8 mph 24.2 mph N/A Snow Light Snow Showers
3:00 PM 14.0 °F -0.2 °F 6.8 °F 73% 30.01 in 15.0 mi NW 12.7 mph 23.0 mph N/A Snow Light Snow Showers
3:47 PM 14.0 °F -0.8 °F 5.0 °F 67% 30.03 in 15.0 mi NW 13.8 mph 20.7 mph N/A   Mostly Cloudy
4:00 PM 14.0 °F -0.2 °F 5.0 °F 67% 30.04 in 15.0 mi WNW 12.7 mph 20.7 mph N/A   Mostly Cloudy
5:00 PM 12.2 °F -0.2 °F 3.2 °F 67% 30.05 in 15.0 mi WNW 9.2 mph - N/A   Partly Cloudy
6:00 PM 10.4 °F -0.4 °F 1.4 °F 67% 30.06 in 15.0 mi WNW 6.9 mph - N/A   Partly Cloudy
7:00 PM 10.4 °F 0.8 °F 1.4 °F 67% 30.08 in 15.0 mi West 5.8 mph - N/A   Partly Cloudy
8:00 PM 10 °F - 2 °F 58% 30.10 in 15 mi West 5.8 mph - -   Partly Cloudy
8:00 PM 10.4 °F 2.2 °F 1.4 °F 67% 30.10 in 15.0 mi West 4.6 mph - N/A   Partly Cloudy
9:00 PM 10.4 °F -1.5 °F 1.4 °F 67% 30.11 in 15.0 mi WNW 8.1 mph - N/A   Partly Cloudy
10:00 PM 10.4 °F -3.3 °F 1.4 °F 67% 30.11 in 15.0 mi WNW 10.4 mph - N/A   Scattered Clouds
11:00 PM 10.4 °F -4.1 °F 1.4 °F 67% 30.12 in 15.0 mi WNW 11.5 mph 18.4 mph N/A   Mostly Cloudy